Meath Environmental Platform

Observations

Time Sensor AQI SAQ Temp °C Hum % Pres Pa CO μg/m³ H₂S μg/m³ NO μg/m³ NO₂ μg/m³ O₃ μg/m³ SO₂ μg/m³ CO₂e PPM VOC PPM PM1 μg/m³ PM2.5 μg/m³ PM4 μg/m³ PM10 μg/m³ TPS µm
Thursday 13 August 2026
06:02 Trim Market St 2 21.3 74 38,397 0 0 1.87 2.24 40.55 0 2.14 3.83 6.32
06:01 Trim Patrick St 2 20.7 77 38,460 0 2.85 1.75 14.58 24.86 4.39 5.43 8.94 9.83
06:01 Trim Market St 2 21.3 74 38,453 0 0 1.83 4.92 40.53 0 2.85 4.79 8.13
06:00 Trim Patrick St 2 20.7 77 38,460 0 0.48 1.69 9.69 29.87 4.14 4.57 7.53 8.28
05:59 Trim Patrick St 2 20.7 77 38,460 0 0.98 1.76 1.97 33.45 4.51 4.57 8.23 9.06
05:59 Trim Market St 2 21.3 74 38,762 0 0 1.71 17.51 29.74 0 2.14 3.84 6.32
05:58 Trim Patrick St 2 20.7 77 38,460 0 0.79 1.85 12.75 25.83 3.69 5.43 9.65 10.61
05:58 Trim Market St 2 21.3 74 38,843 0 0 1.62 2.72 40.44 0 3.56 4.8 8.13
05:57 Trim Patrick St 2 20.7 77 38,460 0 0.29 1.78 9.37 26.43 4.1 6.29 10.35 11.39
05:57 Trim Market St 2 21.3 74 38,901 0 0 1.26 3.2 39.02 0 0 1.91 3.91
05:56 Trim Patrick St 2 20.7 77 38,460 0 0 1.75 4.69 32.23 4.53 5.43 8.23 9.06
05:56 Trim Market St 2 21.3 74 38,962 0 0 1.29 3.21 40.8 0 2.85 5.28 8.13
05:55 Trim Patrick St 2 20.7 77 38,460 0 0.74 1.7 8.67 27.13 4 4.57 8.24 9.07
05:55 Trim Market St 2 21.3 74 38,917 0 0 1.32 4.89 40.65 0 2.85 5.28 8.13
05:54 Trim Patrick St 2 20.7 77 38,460 0 0.56 1.71 8.02 29.66 4.05 3.71 7.53 8.28
05:52 Trim Patrick St 2 20.7 77 38,460 0 0.66 1.67 7.65 28.32 4 3.71 6.82 7.5
05:50 Trim Patrick St 2 20.7 77 38,460 0 0 1.67 6.15 27.52 4.19 4.57 8.24 9.07
05:48 Trim Patrick St 2 20.8 77 38,460 0 0 1.51 9.39 27.95 4.32 5.43 10.35 11.38
05:47 Trim Market St 2 21.3 74 37,843 0 0 1.33 2.56 41.04 0 1.43 1.91 3.91
05:43 Trim Patrick St 2 20.8 77 38,460 0 0.16 1.63 0 39.94 5.04 5.43 8.94 9.83